sat.trackr.live / text

‹ back to catalog

KUIPER-00430

NORAD 68935 · 2026-098S

PAYLOAD ACTIVE UNKNOWN

§ Identity

Operator
Country
US
Launch date
2026-04-30
Launch site
FRGUI
Launch vehicle
Mass (kg)
RCS (m²)

External: N2YO · Heavens-Above · Gunter

§ Orbital elements

Epoch: 2026-05-24T12:25:15.830112Z

Period
94.07 min
Inclination
51.8747°
Eccentricity
0.0017756
Mean motion
15.30704793 rev/d
Perigee alt
461.5 km
Apogee alt
485.9 km
Semi-major
6,851.8 km
B*
9.0431e-4
RAAN
182.3571°
Arg perigee
75.0039°
Mean anomaly
285.2909°
Rev number
370

§ Raw data

KUIPER-004301 68935U 26098S   26144.51754433  .00027087  00000+0  90431-3 0  99982 68935  51.8747 182.3571 0017756  75.0039 285.2909 15.30704793  3706

JSON: /api/v1/satellites/68935 · /tle

For live sub-satellite position, see the globe view (requires WebGL).

§ Visibility from observer

Set your observer location to see the next 7 days of passes ≥ 10°. The values pass through the URL so the page stays shareable.

No JS? Fill the form by hand. The geolocation button needs JavaScript.